Location: Apeadero de Los Molinos-Guadarrama
(40.7091°N, 4.0689°W)
Time: 13:10:49
(UTC+00:00)

Cosmos 2366 rocket - Pass Details

Date: 14 May 2021
Orbit: 955 x 996 km, 82.9° (Epoch: 18 June)

Event Time Altitude Azimuth Distance (km) Brightness Sun altitude
Rises 23:03:35 0° 351° (N) 3,655 8.2 -28.3°
Reaches altitude 10° 23:06:05 10° 351° (N) 2,709 7.3 -28.5°
Maximum altitude 23:12:17 82° 265° (W) 984 3.9 -28.8°
Enters shadow 23:12:35 79° 220° (SW) 991 3.8 -28.8°
